GW6642 Weather Reports


time (UTC)temp
C
wind
direction
speed
KPH
gust
KPH
rain 1hr
cm
rain 24hr
cm
rain mn
cm
humidity
%
barometer
mb
20260504180709 21 260 4.8 14.5 0.00 0.00 0.00 32 1014.3
20260504180207 21 251 8.0 16.1 0.00 0.00 0.00 28 1014.3
20260504175704 21 146 9.7 12.9 0.00 0.00 0.00 30 1014.2
20260504175201 21 230 6.4 12.9 0.00 0.00 0.00 29 1014.4
20260504174659 21 244 9.7 20.9 0.00 0.00 0.00 29 1014.7
20260504174155 21 164 11.3 14.5 0.00 0.00 0.00 30 1014.5
20260504173652 21 104 4.8 14.5 0.00 0.00 0.00 30 1014.6
20260504173150 21 172 8.0 16.1 0.00 0.00 0.00 30 1014.6
20260504172646 21 201 4.8 12.9 0.00 0.00 0.00 34 1014.7
20260504172143 21 177 6.4 12.9 0.00 0.00 0.00 31 1014.9
20260504171639 21 196 3.2 11.3 0.00 0.00 0.00 33 1014.9
20260504171137 21 153 8.0 11.3 0.00 0.00 0.00 31 1015.0
20260504170633 20 229 1.6 4.8 0.00 0.00 0.00 35 1015.0
20260504170130 21 250 8.0 17.7 0.00 0.00 0.00 31 1015.1
20260504151016 18 86 6.4 17.7 0.00 0.00 0.00 38 1016.4
20260504150513 19 252 6.4 12.9 0.00 0.00 0.00 38 1016.2
20260504140939 17 191 3.2 9.7 0.00 0.00 0.00 49 1016.8
20260504140436 16 142 3.2 9.7 0.00 0.00 0.00 49 1016.7
20260504130400 15 315 4.8 9.7 0.00 0.00 0.00 51 1017.2
20260504110248 10 142 3.2 6.4 0.00 0.00 0.00 70 1017.9
20260504100211 8 239 1.6 4.8 0.00 0.00 0.00 69 1017.8
20260504090133 7 128 0.0 1.6 0.00 0.00 0.00 69 1017.8
20260504081604 6 111 0.0 0.0 0.00 0.00 0.00 72 1017.6
20260504081059 6 117 0.0 1.6 0.00 0.00 0.00 73 1017.7
20260504080556 6 104 0.0 0.0 0.00 0.00 0.00 73 1017.6
20260504050409 6 109 0.0 0.0 0.00 0.00 0.00 65 1017.2
20260504045906 6 111 0.0 0.0 0.00 0.00 0.00 65 1017.2
20260504045401 7 111 0.0 1.6 0.00 0.00 0.00 65 1017.2
20260504044858 7 102 0.0 0.0 0.00 0.00 0.00 63 1017.0
20260504044356 7 107 0.0 0.0 0.00 0.00 0.00 62 1017.1
20260504043853 7 104 0.0 0.0 0.00 0.00 0.00 62 1017.2
20260504043350 7 110 0.0 0.0 0.00 0.00 0.00 63 1016.9
20260504042848 7 105 0.0 0.0 0.00 0.00 0.00 63 1017.0
20260504042344 7 103 0.0 0.0 0.00 0.00 0.00 61 1016.9
20260504041840 7 108 0.0 0.0 0.00 0.00 0.00 61 1017.0
20260504041336 7 109 0.0 0.0 0.00 0.00 0.00 62 1016.7
20260504040832 7 110 0.0 0.0 0.00 0.00 0.00 60 1016.7
20260504040330 8 109 0.0 0.0 0.00 0.00 0.00 58 1016.9
20260504035826 8 110 0.0 3.2 0.00 0.00 0.00 57 1016.9
20260504035324 8 107 0.0 0.0 0.00 0.00 0.00 57 1016.8
20260504034821 8 107 0.0 0.0 0.00 0.00 0.00 56 1016.6
20260504034318 8 121 0.0 1.6 0.00 0.00 0.00 57 1016.8
20260504033815 8 109 0.0 0.0 0.00 0.00 0.00 59 1016.5
20260504033313 8 101 0.0 0.0 0.00 0.00 0.00 58 1016.4
20260504032809 7 103 0.0 0.0 0.00 0.00 0.00 57 1016.4
20260504032306 8 103 0.0 0.0 0.00 0.00 0.00 56 1016.4
20260504031803 8 109 0.0 0.0 0.00 0.00 0.00 55 1016.5
20260504031301 8 104 0.0 0.0 0.00 0.00 0.00 53 1016.6
20260504030756 8 102 0.0 0.0 0.00 0.00 0.00 54 1016.6
20260504030254 8 99 0.0 1.6 0.00 0.00 0.00 53 1016.7
20260504025750 8 97 0.0 1.6 0.00 0.00 0.00 53 1016.6
20260504025247 8 118 0.0 1.6 0.00 0.00 0.00 54 1016.5
20260504024744 8 108 0.0 0.0 0.00 0.00 0.00 56 1016.6
20260504024240 8 108 0.0 0.0 0.00 0.00 0.00 56 1016.4
20260504023737 8 108 0.0 0.0 0.00 0.00 0.00 56 1016.3
20260504023233 8 116 0.0 3.2 0.00 0.00 0.00 55 1016.6
20260504022729 8 110 0.0 1.6 0.00 0.00 0.00 55 1016.5
20260504022226 8 106 0.0 0.0 0.00 0.00 0.00 55 1016.5
20260504021723 8 107 0.0 0.0 0.00 0.00 0.00 55 1016.4
20260504021220 8 99 0.0 0.0 0.00 0.00 0.00 55 1016.3
20260504020717 8 105 0.0 0.0 0.00 0.00 0.00 55 1016.4
20260504020214 8 100 0.0 0.0 0.00 0.00 0.00 54 1016.5
20260504015710 8 100 0.0 0.0 0.00 0.00 0.00 54 1016.3
20260504015207 8 100 0.0 0.0 0.00 0.00 0.00 52 1016.4
20260504014702 8 100 0.0 0.0 0.00 0.00 0.00 52 1016.4
20260504014159 8 102 0.0 0.0 0.00 0.00 0.00 52 1016.3
20260504013657 9 105 0.0 0.0 0.00 0.00 0.00 52 1016.4
20260504013154 9 105 0.0 0.0 0.00 0.00 0.00 51 1016.4
20260504012651 10 105 0.0 0.0 0.00 0.00 0.00 50 1016.3
20260504012149 10 98 0.0 0.0 0.00 0.00 0.00 48 1016.2
20260504011645 10 98 0.0 0.0 0.00 0.00 0.00 47 1015.8
20260504011142 10 107 0.0 0.0 0.00 0.00 0.00 48 1016.3
20260504010638 10 107 0.0 0.0 0.00 0.00 0.00 47 1015.9
20260504010134 10 114 0.0 1.6 0.00 0.00 0.00 48 1015.8
20260504005631 11 114 0.0 0.0 0.00 0.00 0.00 46 1015.6
20260504005127 11 113 0.0 0.0 0.00 0.00 0.00 45 1015.5
20260504004626 11 113 0.0 0.0 0.00 0.00 0.00 43 1015.6
20260504004123 11 108 0.0 0.0 0.00 0.00 0.00 42 1015.6
20260504003619 12 108 0.0 0.0 0.00 0.00 0.00 40 1015.3
20260504003115 12 111 0.0 0.0 0.00 0.00 0.00 38 1015.4
20260504002612 13 118 0.0 0.0 0.00 0.00 0.00 34 1015.3
20260504002110 13 132 0.0 1.6 0.00 0.00 0.00 34 1015.4
20260504001608 13 171 1.6 3.2 0.00 0.00 0.00 33 1015.0
20260504001103 13 207 0.0 1.6 0.00 0.00 0.00 32 1015.2
20260504000600 13 239 3.2 4.8 0.00 0.00 0.00 32 1015.2
20260504000058 14 108 1.6 6.4 0.00 0.00 0.00 31 1015.4
20260503235556 14 120 3.2 4.8 0.00 0.00 0.00 30 1015.0
20260503235053 14 105 3.2 9.7 0.00 0.00 0.00 30 1014.9
20260503234550 15 255 3.2 11.3 0.00 0.00 0.00 30 1014.9
20260503234048 15 328 4.8 9.7 0.00 0.00 0.00 29 1015.1
20260503233544 15 243 4.8 12.9 0.00 0.00 0.00 29 1014.9
20260503233041 15 342 8.0 12.9 0.00 0.00 0.00 28 1014.9
20260503232538 15 313 11.3 14.5 0.00 0.00 0.00 28 1014.6
20260503232035 15 87 1.6 6.4 0.00 0.00 0.00 28 1014.7
20260503231533 15 168 6.4 12.9 0.00 0.00 0.00 27 1014.7
20260503231029 15 232 1.6 9.7 0.00 0.00 0.00 27 1014.5
20260503230526 15 131 1.6 6.4 0.00 0.00 0.00 27 1014.6
20260503230024 15 325 6.4 11.3 0.00 0.00 0.00 27 1014.8
20260503225520 15 238 6.4 16.1 0.00 0.00 0.00 26 1014.5
20260503225015 15 101 0.0 11.3 0.00 0.00 0.00 28 1014.6
20260503224514 15 306 3.2 16.1 0.00 0.00 0.00 27 1014.6
20260503224011 15 129 4.8 16.1 0.00 0.00 0.00 26 1014.5
20260503223509 15 7 1.6 12.9 0.00 0.00 0.00 28 1014.5
20260503223004 15 38 4.8 14.5 0.00 0.00 0.00 26 1014.5
20260503222502 15 233 6.4 17.7 0.00 0.00 0.00 27 1014.5
20260503222000 15 256 9.7 17.7 0.00 0.00 0.00 26 1014.5
20260503221458 15 95 1.6 9.7 0.00 0.00 0.00 28 1014.6
20260503220955 16 278 4.8 6.4 0.00 0.00 0.00 28 1014.5
20260503220451 16 319 1.6 14.5 0.00 0.00 0.00 27 1014.4
20260503215948 16 1 12.9 20.9 0.00 0.00 0.00 26 1014.4
20260503215445 16 104 1.6 11.3 0.00 0.00 0.00 27 1014.7
20260503214943 16 304 9.7 17.7 0.00 0.00 0.00 26 1014.8
20260503214440 16 326 3.2 6.4 0.00 0.00 0.00 27 1014.6
20260503213938 16 92 1.6 17.7 0.00 0.00 0.00 27 1014.7
20260503213436 16 322 14.5 17.7 0.00 0.00 0.00 26 1014.5
20260503212932 16 12 8.0 22.5 0.00 0.00 0.00 26 1014.6
20260503212429 16 141 8.0 24.1 0.00 0.00 0.00 26 1014.5
20260503211927 16 247 6.4 12.9 0.00 0.00 0.00 27 1014.6
20260503211423 16 45 3.2 12.9 0.00 0.00 0.00 29 1014.7
20260503210919 16 326 3.2 17.7 0.00 0.00 0.00 28 1014.6
20260503210416 15 113 3.2 11.3 0.00 0.00 0.00 29 1014.6
20260503205916 15 239 11.3 22.5 0.00 0.00 0.00 28 1014.7
20260503205414 15 316 14.5 27.4 0.00 0.00 0.00 27 1014.8
20260503204910 15 69 4.8 17.7 0.00 0.00 0.00 28 1014.8
20260503204407 15 306 11.3 16.1 0.00 0.00 0.00 28 1014.7
20260503203904 15 45 3.2 17.7 0.00 0.00 0.00 29 1014.7
20260503203401 15 135 4.8 9.7 0.00 0.00 0.00 28 1014.9
20260503202858 16 263 12.9 17.7 0.00 0.00 0.00 26 1014.7
20260503202356 16 211 11.3 20.9 0.00 0.00 0.00 27 1014.7
20260503201855 15 215 4.8 14.5 0.00 0.00 0.00 29 1014.9
20260503201351 15 334 11.3 12.9 0.00 0.00 0.00 27 1014.9
20260503200849 15 317 6.4 16.1 0.00 0.00 0.00 28 1014.8
20260503200344 15 9 9.7 24.1 0.00 0.00 0.00 29 1014.7
20260503195842 15 338 8.0 25.7 0.00 0.00 0.00 26 1014.8
20260503195338 15 321 6.4 20.9 0.00 0.00 0.00 28 1014.9
20260503194836 15 283 16.1 25.7 0.00 0.00 0.00 28 1014.8
20260503194331 15 342 9.7 14.5 0.00 0.00 0.00 29 1015.0
20260503193828 15 273 8.0 25.7 0.00 0.00 0.00 27 1015.2
20260503193324 15 350 12.9 17.7 0.00 0.00 0.00 28 1015.0
20260503192820 15 285 8.0 12.9 0.00 0.00 0.00 29 1015.0
20260503192316 15 354 11.3 12.9 0.00 0.00 0.00 30 1015.2
20260503191812 14 69 3.2 16.1 0.00 0.00 0.00 30 1015.2
20260503191309 14 208 3.2 22.5 0.00 0.00 0.00 30 1015.2
20260503190806 15 342 14.5 25.7 0.00 0.00 0.00 28 1015.3
20260503190303 15 37 9.7 16.1 0.00 0.00 0.00 31 1015.3
20260503185800 15 190 12.9 16.1 0.00 0.00 0.00 31 1015.3
20260503185255 15 280 8.0 14.5 0.00 0.00 0.00 29 1015.2
20260503184755 15 349 9.7 14.5 0.00 0.00 0.00 29 1015.5
20260503184252 15 324 4.8 12.9 0.00 0.00 0.00 30 1015.5
20260503183748 15 195 4.8 12.9 0.00 0.00 0.00 30 1015.6
20260503183246 15 280 9.7 12.9 0.00 0.00 0.00 30 1015.5
20260503182743 14 343 9.7 16.1 0.00 0.00 0.00 29 1015.6
20260503182242 14 232 8.0 24.1 0.00 0.00 0.00 31 1015.8
20260503181738 13 316 4.8 11.3 0.00 0.00 0.00 33 1015.6
20260503181235 13 314 6.4 11.3 0.00 0.00 0.00 33 1015.7